Wind_Speed
40 40 41 41 42 42 43 43 43 43 42 42 42 43 44 44 45 46 47 48 49 49 50 50 50 50 50 51 51 50 50 50 48 45 43 42 39 38
37 38 39 40 40 41 42 42 42 42 41 41 41 42 43 45 46 46 48 50 50 50 50 51 50 49 49 49 50 49 48 47 44 42 41 41 39 38
36 36 38 39 39 40 41 40 41 41 41 40 41 42 43 44 45 47 49 49 49 49 50 50 50 49 48 49 49 47 45 43 41 39 39 39 38 36
35 36 36 36 37 37 38 38 39 38 39 40 41 42 43 45 46 47 48 48 49 49 49 49 49 48 48 47 46 44 42 40 38 37 38 38 37 36
34 34 35 35 35 36 37 37 37 38 39 40 40 42 43 44 45 47 47 47 48 48 48 48 48 47 46 45 45 42 41 39 38 36 36 35 35 35
33 33 33 34 35 36 36 36 36 38 39 40 40 41 43 44 44 45 46 46 47 47 47 47 45 45 45 44 42 40 39 39 37 35 34 34 34 34
31 32 32 33 33 34 35 36 37 38 39 39 40 40 41 42 43 44 45 45 46 46 45 44 43 43 43 42 40 39 38 37 37 35 34 32 32 32
30 30 30 31 32 33 34 35 36 38 38 39 39 40 40 41 42 43 43 43 44 44 44 42 41 40 40 40 39 37 36 35 34 32 31 30 30 30
29 29 30 30 32 33 33 34 36 36 38 39 40 40 40 41 42 42 43 43 43 42 42 41 40 39 38 38 37 34 33 32 30 30 29 29 28 28
29 30 30 30 31 32 33 34 35 36 38 40 41 41 41 41 42 42 42 41 42 41 41 40 39 38 37 35 34 32 30 29 29 28 28 27 27 26
29 30 30 31 32 33 34 35 35 37 39 39 40 41 41 41 41 41 41 40 40 40 39 39 38 37 35 34 33 32 30 27 27 27 26 26 26 26
30 30 31 32 32 34 35 36 37 38 39 40 40 40 41 41 41 41 41 40 40 39 38 38 36 35 32 30 31 31 29 27 27 27 26 26 26 26
30 31 33 33 34 34 36 37 37 38 39 39 40 40 40 40 40 40 40 40 39 38 37 36 35 33 31 29 28 27 27 27 27 26 26 26 26 26
31 32 33 34 35 35 36 38 38 39 39 39 40 40 39 39 38 38 38 38 37 37 36 34 33 32 31 29 28 27 25 24 25 25 26 26 26 27
33 34 34 35 36 37 37 38 38 39 39 39 39 39 38 37 36 36 36 36 35 35 34 33 33 32 31 29 27 25 24 23 23 23 24 25 26 26
34 35 36 36 36 37 37 38 38 38 39 39 39 38 37 36 36 35 35 35 34 33 33 32 32 31 30 28 26 24 22 21 20 20 22 22 23 24
35 36 36 36 37 37 38 38 38 38 39 39 39 38 37 36 35 35 35 34 33 32 31 32 32 30 28 26 24 22 21 19 19 19 19 20 21 21
36 37 37 37 38 38 38 39 39 39 39 39 38 37 36 36 35 34 34 34 33 32 31 30 29 29 27 25 23 20 19 19 19 19 18 18 19 20
37 38 38 38 39 39 39 39 39 39 39 38 38 37 36 35 34 33 33 33 32 31 30 29 28 28 26 23 22 20 19 19 19 19 19 20 20 21
38 38 38 39 39 39 40 39 39 39 39 38 38 37 36 35 34 34 33 33 32 31 30 29 27 26 25 22 20 19 18 19 19 20 20 20 21 22
39 39 39 40 40 40 40 40 40 40 40 39 38 37 36 35 35 34 33 33 32 30 29 27 26 25 24 22 21 20 18 18 19 21 21 21 22 23
40 40 40 40 40 40 40 40 40 40 40 39 38 37 36 35 34 33 32 31 30 29 28 27 26 24 24 22 21 21 20 19 19 21 22 22 23 24
39 40 39 39 40 39 39 39 39 39 39 38 37 36 36 35 34 32 31 30 29 28 27 26 25 24 23 22 22 22 22 21 20 21 22 22 22 24
Wind_Direction
266 267 268 270 272 275 278 280 280 280 279 280 280 281 283 284 286 288 289 290 290 290 290 291 291 290 289 289 290 290 289 288 286 282 279 276 273 270
266 268 269 272 274 277 279 280 280 281 280 281 282 283 284 286 287 288 289 290 290 290 290 292 292 292 292 291 291 291 290 289 286 281 277 274 271 269
269 271 272 273 275 278 279 280 281 282 283 283 283 284 284 286 288 289 290 290 291 291 291 294 294 293 293 292 291 290 289 287 284 280 276 272 270 267
270 272 273 275 277 277 279 280 282 283 284 284 284 285 286 288 289 290 290 290 292 291 292 293 293 293 293 292 292 290 288 285 282 280 277 272 269 266
270 272 273 275 276 278 280 282 283 285 286 286 286 287 288 289 290 291 291 291 293 293 292 292 293 293 293 292 292 290 287 285 282 281 278 273 267 264
270 272 273 274 277 280 282 284 285 287 289 289 289 289 290 291 291 292 292 293 295 295 293 293 293 294 295 293 293 289 286 284 282 279 277 273 266 261
271 273 275 277 281 282 284 285 286 289 290 291 292 292 293 293 294 294 294 294 295 296 295 293 294 295 295 293 292 290 286 283 281 279 275 272 265 257
272 274 276 278 282 285 286 288 289 290 291 292 293 296 296 296 296 296 296 296 297 296 295 294 295 295 295 294 293 289 286 283 280 276 272 268 261 255
272 275 277 281 283 285 288 289 291 292 293 293 294 296 297 298 298 298 298 299 299 298 296 295 294 294 295 295 293 289 285 282 277 274 271 265 259 256
273 277 279 281 283 285 288 291 293 294 295 295 296 297 297 298 298 299 299 300 301 301 299 297 295 294 296 294 292 289 283 280 276 272 267 262 256 252
277 279 280 283 285 288 290 291 294 296 298 298 299 299 299 298 298 299 299 300 301 301 299 299 297 295 294 294 292 288 282 276 273 269 262 259 255 250
279 280 282 284 286 289 291 292 294 297 299 300 301 301 301 300 299 300 300 300 300 300 299 299 299 296 295 294 292 289 283 278 273 266 259 256 253 247
280 282 284 285 287 290 292 293 295 298 299 301 302 303 302 301 301 301 301 301 300 299 299 298 297 295 294 293 292 290 284 277 272 265 258 255 251 246
283 284 286 287 288 291 293 294 297 298 300 302 303 304 304 302 301 302 302 301 300 301 299 297 296 296 295 293 291 287 282 275 270 263 257 253 250 246
284 287 288 289 290 292 294 296 298 299 300 302 303 304 304 303 302 302 304 303 301 301 300 296 296 298 297 293 290 285 279 274 269 261 255 250 246 242
285 287 289 291 292 293 294 296 298 299 301 302 303 304 303 303 303 302 303 303 303 302 301 298 297 297 297 293 290 283 277 272 269 262 254 246 242 239
285 287 289 292 293 294 295 297 298 299 301 302 303 303 303 303 303 302 301 301 302 301 300 299 298 296 295 293 288 281 275 267 261 258 253 243 239 236
285 287 289 291 293 293 294 295 296 298 300 302 302 302 302 301 301 301 300 301 300 299 298 298 296 294 291 289 284 279 272 266 258 252 248 241 235 231
286 287 289 292 293 293 293 295 297 298 300 301 301 301 300 301 301 301 301 301 301 299 297 295 293 293 289 284 280 275 268 262 255 249 245 240 235 233
286 287 290 292 293 293 294 295 297 299 300 300 300 299 299 300 300 300 300 301 301 298 296 294 292 291 287 281 275 272 266 259 253 248 243 239 233 229
285 287 289 292 293 294 295 296 297 298 299 299 299 298 299 299 299 299 299 300 300 298 295 293 291 286 281 277 273 270 266 260 254 248 243 239 235 231
285 286 289 291 292 293 294 295 297 298 298 298 298 297 297 298 299 299 299 298 299 297 294 292 288 282 277 273 272 269 264 260 254 249 243 239 237 233
284 286 288 291 292 292 293 295 296 297 297 297 297 296 296 297 297 296 296 296 296 295 293 290 286 280 274 270 269 267 264 260 254 248 243 238 235 231
Height
5699 5699 5700 5700 5701 5701 5700 5700 5699 5699 5699 5698 5695 5692 5689 5687 5684 5681 5679 5675 5672 5669 5665 5662 5658 5654 5650 5646 5642 5637 5633 5628 5625 5622 5621 5620 5620 5622
5690 5690 5691 5691 5691 5691 5690 5689 5688 5687 5687 5686 5684 5681 5678 5676 5673 5669 5666 5663 5659 5655 5652 5648 5644 5640 5635 5631 5626 5622 5618 5614 5610 5608 5607 5607 5607 5609
5681 5681 5682 5682 5681 5681 5679 5678 5677 5676 5675 5675 5672 5670 5667 5664 5661 5657 5654 5650 5646 5642 5638 5634 5630 5625 5621 5617 5612 5607 5603 5600 5597 5595 5595 5594 5595 5597
5673 5673 5673 5672 5672 5671 5670 5668 5667 5665 5664 5663 5661 5658 5655 5652 5649 5645 5641 5637 5633 5629 5625 5620 5616 5612 5607 5603 5598 5594 5590 5587 5585 5583 5582 5582 5583 5585
5664 5664 5664 5664 5663 5662 5660 5659 5657 5655 5653 5651 5650 5647 5643 5640 5637 5633 5628 5624 5620 5616 5611 5607 5603 5599 5594 5590 5585 5581 5578 5576 5574 5572 5571 5570 5572 5573
5656 5655 5655 5655 5654 5652 5651 5649 5647 5645 5643 5640 5638 5635 5632 5628 5624 5621 5617 5613 5608 5603 5598 5594 5591 5586 5582 5577 5573 5569 5566 5564 5562 5561 5560 5560 5561 5562
5647 5647 5647 5646 5645 5643 5641 5639 5637 5635 5632 5629 5627 5624 5620 5616 5613 5609 5605 5601 5597 5592 5587 5583 5579 5575 5570 5565 5561 5557 5555 5553 5551 5551 5550 5550 5551 5553
5639 5639 5638 5637 5636 5634 5632 5630 5627 5624 5621 5619 5616 5613 5609 5605 5601 5597 5593 5589 5586 5582 5576 5572 5567 5563 5559 5554 5550 5546 5544 5542 5540 5540 5540 5540 5541 5543
5631 5631 5630 5629 5627 5625 5623 5620 5617 5614 5611 5608 5605 5601 5598 5594 5590 5586 5581 5576 5573 5569 5564 5561 5557 5553 5548 5543 5539 5536 5533 5532 5531 5531 5532 5532 5533 5535
5623 5622 5621 5620 5618 5616 5614 5611 5608 5604 5601 5597 5594 5591 5586 5582 5578 5574 5570 5566 5562 5557 5553 5551 5547 5543 5538 5533 5529 5526 5524 5523 5523 5523 5523 5524 5525 5527
5615 5614 5613 5611 5609 5607 5604 5602 5599 5595 5591 5587 5583 5579 5574 5570 5566 5563 5559 5555 5552 5548 5543 5540 5537 5533 5530 5525 5520 5517 5516 5515 5515 5515 5516 5517 5518 5520
5606 5605 5603 5602 5599 5596 5594 5591 5589 5585 5581 5577 5573 5568 5563 5559 5555 5551 5548 5544 5541 5538 5534 5530 5527 5523 5521 5518 5513 5509 5507 5507 5507 5507 5508 5509 5511 5512
5597 5596 5594 5592 5589 5587 5584 5581 5578 5575 5571 5567 5563 5558 5553 5549 5545 5541 5537 5533 5530 5527 5524 5520 5517 5513 5510 5509 5506 5502 5500 5499 5498 5499 5500 5501 5503 5505
5588 5586 5584 5582 5579 5577 5574 5571 5568 5564 5561 5557 5552 5548 5544 5539 5535 5531 5527 5522 5519 5516 5513 5509 5507 5504 5500 5498 5496 5494 5491 5490 5490 5490 5491 5493 5495 5497
5579 5577 5575 5572 5569 5566 5564 5560 5557 5554 5550 5547 5543 5538 5534 5530 5526 5522 5517 5513 5509 5506 5502 5499 5497 5494 5490 5488 5486 5484 5483 5482 5482 5482 5483 5485 5487 5490
5569 5567 5564 5562 5559 5556 5553 5550 5547 5544 5540 5536 5532 5528 5524 5520 5516 5512 5509 5505 5501 5498 5494 5490 5488 5485 5482 5479 5477 5476 5475 5475 5475 5475 5475 5477 5480 5483
5558 5556 5554 5552 5549 5546 5543 5540 5537 5533 5530 5526 5522 5518 5514 5511 5507 5504 5500 5497 5493 5490 5487 5483 5479 5476 5474 5471 5470 5469 5468 5469 5470 5470 5471 5472 5475 5477
5548 5546 5544 5541 5538 5535 5532 5529 5526 5523 5519 5516 5512 5508 5505 5501 5498 5495 5491 5488 5485 5482 5478 5475 5472 5469 5467 5464 5463 5463 5463 5463 5464 5465 5466 5468 5470 5473
5538 5535 5533 5531 5528 5525 5522 5519 5516 5512 5509 5505 5502 5498 5495 5492 5489 5485 5482 5479 5476 5473 5469 5466 5464 5461 5460 5458 5458 5457 5457 5458 5459 5461 5462 5464 5466 5469
5526 5524 5522 5520 5517 5514 5511 5508 5505 5502 5498 5495 5492 5489 5485 5482 5479 5476 5473 5470 5467 5464 5461 5458 5456 5454 5452 5452 5452 5451 5452 5453 5454 5456 5458 5460 5462 5465
5515 5513 5511 5508 5505 5502 5499 5497 5494 5491 5487 5484 5481 5478 5475 5472 5469 5466 5464 5461 5458 5455 5453 5451 5448 5447 5445 5445 5445 5446 5446 5447 5449 5450 5452 5455 5457 5460
5503 5501 5499 5496 5493 5491 5488 5485 5482 5479 5476 5473 5470 5467 5465 5462 5459 5457 5454 5451 5449 5446 5444 5442 5441 5439 5439 5439 5439 5440 5440 5441 5443 5444 5446 5449 5451 5455
5491 5489 5487 5485 5482 5479 5477 5474 5471 5468 5465 5462 5459 5456 5454 5452 5449 5447 5445 5442 5440 5438 5436 5434 5433 5432 5432 5432 5433 5433 5434 5435 5437 5438 5441 5442 5445 5448